Location: Vancouver
(49.2500°N, 123.1330°W)
Time: 21:01:18
(UTC-08:00)

BREEZE-M DEB (TANK) - Visible Passes

Search period start: 17 December 2017 00:00
Search period end: 27 December 2017 00:00
Orbit: 282 x 13213 km, 49.6° (Epoch: 16 December)

Date Brightness Start Highest point End Pass type
(mag) Time Alt. Az. Time Alt. Az. Time Alt. Az.
17 Dec 7.0 03:40:42 10° SW 05:06:14 76° SSE 05:21:44 10° ENE visible
18 Dec 8.2 00:11:49 10° SSE 01:32:36 41° ESE 01:59:42 10° ENE visible
18 Dec 6.5 04:53:56 10° WSW 06:08:10 86° SSE 06:20:26 10° ENE visible
19 Dec 7.9 01:05:18 10° S 02:35:29 54° SE 02:59:41 10° ENE visible
19 Dec 6.1 06:11:39 10° WSW 07:09:22 89° N 07:18:59 10° E visible
19 Dec 8.6 22:25:44 10° ESE 23:05:39 17° E 23:28:52 10° ENE visible
20 Dec 7.5 02:05:31 10° SSW 03:38:39 66° SE 03:58:56 10° ENE visible
20 Dec 5.6 07:28:43 10° W 08:09:49 89° S 08:17:20 10° ESE visible
20 Dec 8.3 22:57:56 10° SSE 00:05:21 30° ESE 00:34:14 10° ENE visible
21 Dec 7.1 03:12:04 10° SW 04:41:25 78° SSE 04:57:47 10° ENE visible
21 Dec 8.2 23:43:07 10° SSE 01:06:56 42° ESE 01:35:32 10° ENE visible
22 Dec 6.6 04:25:05 10° WSW 05:43:27 87° SSE 05:56:24 10° ENE visible
23 Dec 7.9 00:36:40 10° S 02:09:48 55° SE 02:35:22 10° ENE visible
23 Dec 6.2 05:43:04 10° WSW 06:44:43 89° N 06:54:50 10° E visible
23 Dec 8.5 21:55:32 10° SE 22:39:42 19° E 23:04:54 10° ENE visible
24 Dec 7.5 01:36:42 10° SSW 03:13:03 68° SE 03:34:32 10° ENE visible
24 Dec 5.7 07:00:52 10° W 07:45:10 89° SSW 07:53:05 10° ESE visible
24 Dec 8.3 22:28:37 10° SSE 23:39:09 31° ESE 00:09:39 10° ENE visible
25 Dec 7.1 02:42:53 10° SW 04:15:57 79° SSE 04:33:18 10° ENE visible
25 Dec 8.2 23:14:07 10° SSE 00:40:36 44° ESE 01:10:46 10° ENE visible
26 Dec 6.7 03:55:33 10° WSW 05:18:08 87° SSE 05:31:49 10° E visible
